STARLINK-36044

Last updated on Mon Dec 15 2025 00:02:11 GMT+0000 (Coordinated Universal Time)

1 66799U 25278J 25348.25003472 -.01263376 00000+0 -64897-2 0 9991 2 66799 42.9969 242.7925 0001967 275.6306 116.0746 15.82963927 3203
UTC large
Height (km)
Speed (km/s)
/
Latitude / Longitude
Inclination (degrees)
Orbital Period (minutes)
Azimuth
Elevation
Range (km)
Doppler Factor

Next 0 passes for location: London (51.5072 / 0.1276)

Sorry there are no passes over London.